Weather Roundup
Issued by NWS Chicago, IL

Home | Current Version | Previous Version | Graphics & Text | Print | Product List | Glossary On
Versions: 1 2 3 4 5 6 7 8 9 10 11 12 13 14 15 16 17 18 19 20 21 22 23 24 25 26 27 28 29 30 31 32 33 34 35 36 37 38 39 40 41 42 43 44 45 46 47 48 49 50
000
NZUS59 KLOT 281512
HRRLOT

CHICAGO AREA WEATHER ROUNDUP
NATIONAL WEATHER SERVICE CHICAGO/ROMEOVILLE IL
1000 AM CDT WED SEP 28 2016

NOTE: "FAIR" INDICATES FEW OR NO CLOUDS BELOW 12,000 FEET WITH NO
SIGNIFICANT WEATHER AND/OR OBSTRUCTIONS TO VISIBILITY.

* THESE STATIONS ARE NOT UNDER NWS QUALITY CONTROL. THEY ALSO MAY NOT
  REPORT WEATHER SUCH AS PRECIPITATION OR FOG.

ILZ005-006-012>014-019>023-281600-
NORTHEAST ILLINOIS

CITY           SKY/WX    TMP DP  RH WIND       PRES   REMARKS
OHARE          PTSUNNY   56  46  69 N13       29.88R
MIDWAY         PTSUNNY   56  46  69 N12       29.87R
AURORA         CLOUDY    55  47  74 N12       29.90R
LANSING*       CLOUDY    54  52  92 NW10      29.86R
JOLIET*        CLOUDY    56  47  74 N10       29.89R
WAUKEGAN       CLOUDY    56  48  74 N9G17     29.89R
DUPAGE AIRPORT CLOUDY    53  47  79 N9        29.88R
WHEELING       MOSUNNY   56  45  66 N13       29.89R
KANKAKEE*      CLOUDY    57  46  67 N15       29.87R
MORRIS*        CLOUDY    55  46  71 CALM      29.89R
LEWIS AIRPORT* PTSUNNY   56  49  76 N10G16    29.88R
NORTHERLY ISL    N/A     55  47  74 N9          N/A
$$

WIZ051-052-058>065-066-070>072-281600-
SOUTHEAST WISCONSIN

CITY           SKY/WX    TMP DP  RH WIND       PRES   REMARKS
MILWAUKEE      PTSUNNY   55  49  80 N10       29.91R
KENOSHA*       PTSUNNY   56  48  74 N10G18    29.90R
RACINE*        MOSUNNY   54  49  83 N13       29.92R
BURLINGTON     CLOUDY    52  47  82 N6        29.91R
WEST BEND      CLOUDY    52  48  87 N6        29.92R
$$

INZ001>003-010>013-019-020-281600-
NORTHWEST INDIANA

CITY           SKY/WX    TMP DP  RH WIND       PRES   REMARKS
GARY*          CLOUDY    55  54  94 NW14      29.87R
MICHIGAN CITY* NOT AVBL
RENSSELAER*    NOT AVBL
VALPARAISO     CLOUDY    57  50  77 CALM      29.84R
$$

LMZ740>746-281600-
SOUTHERN LAKE MICHIGAN

STATION/POSITION TIME  SKY/WX   TEMP WIND        PRES    VSBY
                                AIR  DIR/SP/G
                 (UTC)          (F)  (DEG/KT/KT) (MB)    (MI)
HARRISON CRIB    1440            54  340/ 21/ 22   N/A
BURNHAM HARBOR   1500            55  350/  8/ 14   N/A
CALUMET HARBOR   1448            54  310/  9/ 17 1010.8R
BURNS HARBOR     1440            59   30/ 13/ 17 1010.8R
MICHIGAN CITY    1440            57   20/ 19/ 20   N/A
$$

ABBREVIATIONS USED IN REMARKS
   TC - TEMPERATURE IN CELSIUS
  WCI - WIND CHILL INDEX
   HX - HEAT INDEX
  VSB - VISIBILITY
$$




USA.gov is the U.S. government's official web portal to all federal, state and local government web resources and services.